Location: Baix
(44.7118°N, 4.7648°E)
Time: 18:27:25
(UTC+00:00)

Cosmos 1626 Rocket - Pass Details

Date: 07 August 2020
Orbit: 603 x 631 km, 82.5° (Epoch: 23 September)

Event Time Altitude Azimuth Distance (km) Brightness Sun altitude
Rises 03:08:37 0° 347° (NNW) 2,875 7.4 -13.7°
Reaches altitude 10° 03:10:52 10° 344° (NNW) 1,963 6.4 -13.4°
Maximum altitude 03:15:08 60° 265° (W) 696 3.5 -12.8°
Drops below altitude 10° 03:19:22 10° 186° (S) 1,943 5.7 -12.2°
Enters shadow 03:19:56 - 185° (S) 2,168 6.0 -12.1°
